�������l�o���
Date,Time,MP-1(��Sv/h),MP-2(��Sv/h),MP-3(��Sv/h),MP-4(��Sv/h),MP-5(��Sv/h),MP-6(��Sv/h),MP-7(��Sv/h),����,����(m/s),���J
2020/04/11,00:00,0.182,0.164,0.274,0.249,0.258,0.141,0.086,�k��,3.8,��
2020/04/11,00:10,0.181,0.165,0.276,0.250,0.260,0.139,0.085,�k��,3.4,��
2020/04/11,00:20,0.182,0.165,0.274,0.250,0.258,0.140,0.085,���k��,3.2,��
2020/04/11,00:30,0.183,0.165,0.275,0.250,0.258,0.139,0.085,���k��,3.1,��
2020/04/11,00:40,0.182,0.166,0.275,0.250,0.260,0.140,0.086,��,2.5,��
2020/04/11,00:50,0.181,0.165,0.275,0.252,0.259,0.140,0.085,���쐼,2.2,��
2020/04/11,01:00,0.182,0.165,0.275,0.250,0.260,0.139,0.085,���k��,2.7,��
2020/04/11,01:10,0.181,0.165,0.275,0.250,0.259,0.140,0.085,�k��,4.1,��
2020/04/11,01:20,0.183,0.165,0.274,0.251,0.260,0.140,0.084,���k��,4.5,��
2020/04/11,01:30,0.182,0.165,0.276,0.251,0.259,0.141,0.085,�k��,4.5,��
2020/04/11,01:40,0.181,0.166,0.274,0.250,0.258,0.141,0.086,�k��,4.6,��
2020/04/11,01:50,0.182,0.165,0.275,0.250,0.258,0.140,0.086,�k��,3.4,��
2020/04/11,02:00,0.181,0.165,0.275,0.250,0.258,0.141,0.086,���k��,4.6,��
2020/04/11,02:10,0.182,0.164,0.276,0.249,0.259,0.140,0.084,���k��,5.2,��
2020/04/11,02:20,0.182,0.165,0.275,0.250,0.259,0.140,0.085,�k��,4.9,��
2020/04/11,02:30,0.182,0.165,0.274,0.251,0.260,0.140,0.085,���k��,4.8,��
2020/04/11,02:40,0.181,0.165,0.275,0.250,0.258,0.140,0.085,���k��,4.8,��
2020/04/11,02:50,0.181,0.165,0.276,0.251,0.259,0.141,0.085,���k��,4.4,��
2020/04/11,03:00,0.181,0.165,0.276,0.249,0.259,0.140,0.086,���k��,4.4,��
2020/04/11,03:10,0.183,0.165,0.275,0.250,0.260,0.141,0.086,��,4.3,��
2020/04/11,03:20,0.182,0.165,0.275,0.251,0.259,0.140,0.085,���k��,5.5,��
2020/04/11,03:30,0.182,0.164,0.275,0.250,0.260,0.141,0.086,���k��,5.4,��
2020/04/11,03:40,0.182,0.166,0.274,0.250,0.259,0.140,0.085,���k��,4.2,��
2020/04/11,03:50,0.182,0.165,0.275,0.250,0.258,0.141,0.085,���k��,4.4,��
2020/04/11,04:00,0.182,0.165,0.274,0.250,0.259,0.140,0.086,���k��,4.8,��
2020/04/11,04:10,0.182,0.164,0.276,0.251,0.258,0.140,0.085,���k��,4.3,��
2020/04/11,04:20,0.181,0.164,0.274,0.250,0.259,0.141,0.085,���k��,4.2,��
2020/04/11,04:30,0.182,0.165,0.274,0.251,0.259,0.140,0.085,���k��,4.2,��
2020/04/11,04:40,0.183,0.165,0.275,0.250,0.260,0.139,0.085,���k��,4.6,��
2020/04/11,04:50,0.182,0.165,0.275,0.250,0.258,0.140,0.085,���k��,4.4,��
2020/04/11,05:00,0.182,0.165,0.274,0.250,0.258,0.139,0.085,���k��,3.6,��
2020/04/11,05:10,0.181,0.164,0.273,0.250,0.258,0.140,0.085,���k��,3.9,��
2020/04/11,05:20,0.182,0.165,0.275,0.250,0.259,0.140,0.085,���k��,3.4,��
2020/04/11,05:30,0.182,0.165,0.276,0.250,0.259,0.140,0.085,���k��,3.2,��
2020/04/11,05:40,0.182,0.164,0.275,0.251,0.257,0.140,0.085,���k��,3.7,��
2020/04/11,05:50,0.182,0.164,0.275,0.250,0.259,0.141,0.086,���k��,3.7,��
2020/04/11,06:00,0.183,0.165,0.275,0.250,0.259,0.140,0.086,���k��,4.4,��
2020/04/11,06:10,0.182,0.165,0.274,0.250,0.260,0.140,0.084,���k��,4.1,��
2020/04/11,06:20,0.181,0.164,0.275,0.248,0.258,0.140,0.085,��,4.0,��
2020/04/11,06:30,0.182,0.163,0.275,0.249,0.259,0.141,0.084,���k��,3.6,��
2020/04/11,06:40,0.181,0.166,0.274,0.251,0.260,0.140,0.085,��,3.0,��
2020/04/11,06:50,0.182,0.165,0.274,0.249,0.257,0.139,0.085,��,1.7,��
2020/04/11,07:00,0.181,0.164,0.274,0.249,0.259,0.139,0.085,���k��,1.4,��
2020/04/11,07:10,0.183,0.165,0.275,0.250,0.258,0.140,0.085,���k��,0.7,��
2020/04/11,07:20,0.182,0.164,0.272,0.249,0.258,0.140,0.084,�k,1.6,��
2020/04/11,07:30,0.181,0.164,0.273,0.248,0.257,0.140,0.084,�k��,1.3,��
2020/04/11,07:40,0.183,0.163,0.272,0.251,0.259,0.140,0.085,�k,1.4,��
2020/04/11,07:50,0.183,0.164,0.272,0.249,0.259,0.140,0.084,�k,1.4,��
2020/04/11,08:00,0.182,0.164,0.274,0.248,0.258,0.140,0.085,�k�k��,1.5,��
2020/04/11,08:10,0.182,0.164,0.274,0.249,0.260,0.140,0.085,�k�k��,2.3,��
2020/04/11,08:20,0.181,0.164,0.274,0.248,0.258,0.140,0.085,�k��,3.4,��
2020/04/11,08:30,0.181,0.163,0.272,0.248,0.258,0.140,0.086,���k��,3.2,��
2020/04/11,08:40,0.182,0.163,0.276,0.248,0.259,0.140,0.085,�k��,2.9,��
2020/04/11,08:50,0.180,0.164,0.272,0.251,0.258,0.140,0.086,���k��,2.6,��
2020/04/11,09:00,0.182,0.164,0.275,0.248,0.259,0.140,0.085,���k��,3.5,��
2020/04/11,09:10,0.180,0.164,0.274,0.250,0.257,0.139,0.085,�k��,2.9,��
2020/04/11,09:20,0.182,0.163,0.274,0.248,0.259,0.140,0.085,�k��,2.9,��
2020/04/11,09:30,0.181,0.164,0.273,0.250,0.258,0.139,0.085,���k��,3.3,��
2020/04/11,09:40,0.182,0.164,0.274,0.247,0.260,0.140,0.085,���k��,3.5,��
2020/04/11,09:50,0.180,0.164,0.274,0.250,0.257,0.140,0.085,���k��,4.4,��
2020/04/11,10:00,0.181,0.164,0.275,0.248,0.259,0.140,0.085,���k��,3.2,��
2020/04/11,10:10,0.181,0.164,0.274,0.249,0.258,0.139,0.084,��,3.2,��
2020/04/11,10:20,0.182,0.164,0.274,0.249,0.259,0.140,0.085,��,3.9,��
2020/04/11,10:30,0.181,0.164,0.275,0.249,0.258,0.140,0.085,���k��,2.6,��
2020/04/11,10:40,0.181,0.164,0.273,0.250,0.260,0.139,0.085,���k��,4.4,��
2020/04/11,10:50,0.181,0.164,0.276,0.248,0.257,0.140,0.085,��,4.9,��
2020/04/11,11:00,0.182,0.164,0.274,0.250,0.261,0.140,0.086,��,4.0,��
2020/04/11,11:10,0.180,0.164,0.276,0.250,0.257,0.139,0.085,���k��,2.4,��
2020/04/11,11:20,0.181,0.164,0.275,0.250,0.261,0.140,0.084,���k��,3.0,��
2020/04/11,11:30,0.182,0.164,0.275,0.248,0.258,0.140,0.085,���k��,3.4,��
2020/04/11,11:40,0.181,0.163,0.274,0.249,0.260,0.140,0.085,���k��,3.4,��
2020/04/11,11:50,0.182,0.164,0.275,0.250,0.257,0.139,0.085,���k��,3.2,��
2020/04/11,12:00,0.182,0.164,0.275,0.252,0.259,0.140,0.085,��,3.7,��
2020/04/11,12:10,0.181,0.165,0.274,0.248,0.259,0.140,0.084,��,3.5,��
2020/04/11,12:20,0.181,0.164,0.276,0.251,0.260,0.140,0.085,��,2.4,��
2020/04/11,12:30,0.181,0.165,0.276,0.248,0.258,0.140,0.086,���k��,2.2,��
2020/04/11,12:40,0.182,0.164,0.275,0.251,0.260,0.140,0.086,��,2.6,��
2020/04/11,12:50,0.182,0.164,0.274,0.249,0.259,0.139,0.085,��,2.2,��
2020/04/11,13:00,0.183,0.164,0.276,0.250,0.259,0.140,0.085,��,2.9,��
2020/04/11,13:10,0.182,0.164,0.274,0.249,0.258,0.140,0.086,���k��,3.1,��
2020/04/11,13:20,0.182,0.164,0.276,0.251,0.260,0.140,0.085,�k��,1.8,��
2020/04/11,13:30,0.181,0.164,0.275,0.249,0.258,0.139,0.085,��,3.4,��
2020/04/11,13:40,0.182,0.164,0.276,0.251,0.260,0.140,0.085,��,3.0,��
2020/04/11,13:50,0.182,0.164,0.276,0.249,0.257,0.139,0.085,���쓌,1.5,��
2020/04/11,14:00,0.183,0.164,0.275,0.249,0.262,0.140,0.085,��,1.8,��
2020/04/11,14:10,0.182,0.164,0.275,0.251,0.258,0.139,0.085,��,2.5,��
2020/04/11,14:20,0.181,0.162,0.276,0.249,0.260,0.139,0.085,��,2.8,��
2020/04/11,14:30,0.181,0.164,0.275,0.251,0.259,0.139,0.085,�쓌,1.7,��
2020/04/11,14:40,0.182,0.164,0.273,0.250,0.258,0.141,0.084,�쓌,2.4,��
2020/04/11,14:50,0.180,0.165,0.276,0.251,0.260,0.139,0.084,�쓌,2.7,��
2020/04/11,15:00,0.183,0.165,0.274,0.252,0.258,0.140,0.085,��쓌,2.8,��
2020/04/11,15:10,0.180,0.164,0.275,0.251,0.259,0.140,0.084,��쓌,1.9,��
2020/04/11,15:20,0.182,0.165,0.274,0.250,0.258,0.140,0.085,��쓌,3.0,��
2020/04/11,15:30,0.181,0.165,0.276,0.250,0.262,0.139,0.085,��쓌,3.8,��
2020/04/11,15:40,0.181,0.165,0.276,0.252,0.259,0.140,0.085,��쓌,2.9,��
2020/04/11,15:50,0.181,0.165,0.276,0.252,0.260,0.140,0.085,��쓌,3.2,��
2020/04/11,16:00,0.181,0.165,0.276,0.251,0.258,0.141,0.085,��쓌,3.8,��
2020/04/11,16:10,0.182,0.165,0.276,0.253,0.260,0.141,0.085,��쓌,4.0,��
2020/04/11,16:20,0.183,0.165,0.276,0.252,0.258,0.141,0.085,��쓌,4.5,��
2020/04/11,16:30,0.183,0.165,0.278,0.251,0.260,0.139,0.086,��쓌,4.5,��
2020/04/11,16:40,0.184,0.166,0.277,0.252,0.258,0.140,0.085,��쓌,5.0,��
2020/04/11,16:50,0.183,0.164,0.276,0.252,0.260,0.140,0.085,�쓌,4.8,��
2020/04/11,17:00,0.182,0.165,0.277,0.251,0.261,0.141,0.085,��쓌,4.1,��
2020/04/11,17:10,0.183,0.165,0.276,0.251,0.260,0.141,0.085,��쓌,5.0,��
2020/04/11,17:20,0.182,0.166,0.274,0.252,0.261,0.141,0.086,��쓌,5.2,��
2020/04/11,17:30,0.182,0.165,0.275,0.251,0.260,0.141,0.085,��쓌,4.0,��
2020/04/11,17:40,0.182,0.165,0.276,0.251,0.262,0.141,0.085,��쓌,4.2,��
2020/04/11,17:50,0.181,0.166,0.276,0.252,0.262,0.140,0.085,��,4.0,��
2020/04/11,18:00,0.182,0.165,0.276,0.252,0.259,0.141,0.085,��쓌,3.2,��
2020/04/11,18:10,0.182,0.165,0.276,0.250,0.260,0.139,0.085,��쓌,3.6,��
2020/04/11,18:20,0.182,0.166,0.275,0.251,0.261,0.141,0.086,��,4.0,��
2020/04/11,18:30,0.182,0.165,0.275,0.251,0.260,0.141,0.085,��쓌,3.3,��
2020/04/11,18:40,0.183,0.165,0.276,0.251,0.259,0.140,0.085,��,2.8,��
2020/04/11,18:50,0.182,0.165,0.275,0.252,0.261,0.141,0.084,��,3.3,��
2020/04/11,19:00,0.182,0.165,0.274,0.252,0.258,0.140,0.085,��,3.3,��
2020/04/11,19:10,0.183,0.165,0.276,0.252,0.260,0.140,0.084,��,3.5,��
2020/04/11,19:20,0.181,0.164,0.276,0.252,0.259,0.140,0.085,��,4.2,��
2020/04/11,19:30,0.182,0.164,0.275,0.252,0.261,0.140,0.085,��,3.1,��
2020/04/11,19:40,0.183,0.165,0.275,0.252,0.259,0.141,0.085,��,3.1,��
2020/04/11,19:50,0.181,0.164,0.276,0.251,0.261,0.141,0.086,��,5.5,��
2020/04/11,20:00,0.181,0.165,0.277,0.251,0.259,0.140,0.084,��쐼,5.4,��
2020/04/11,20:10,0.183,0.166,0.275,0.252,0.260,0.140,0.086,��쐼,5.1,��
2020/04/11,20:20,0.182,0.165,0.275,0.251,0.259,0.141,0.085,��,5.8,��
2020/04/11,20:30,0.181,0.165,0.275,0.251,0.260,0.140,0.085,��,6.8,��
2020/04/11,20:40,0.182,0.165,0.276,0.251,0.261,0.140,0.085,��,6.2,��
2020/04/11,20:50,0.182,0.165,0.275,0.251,0.261,0.141,0.085,��,5.8,��
2020/04/11,21:00,0.182,0.165,0.275,0.251,0.259,0.140,0.086,��,6.5,��
2020/04/11,21:10,0.183,0.165,0.276,0.251,0.260,0.140,0.085,��쐼,6.4,��
2020/04/11,21:20,0.182,0.165,0.275,0.251,0.260,0.141,0.085,��쐼,6.8,��
2020/04/11,21:30,0.182,0.165,0.275,0.252,0.259,0.140,0.085,��쐼,6.9,��
2020/04/11,21:40,0.182,0.164,0.277,0.252,0.260,0.141,0.085,��,6.1,��
2020/04/11,21:50,0.183,0.166,0.276,0.251,0.260,0.140,0.086,��쐼,6.4,��
2020/04/11,22:00,0.182,0.165,0.275,0.252,0.259,0.141,0.085,��쐼,4.6,��
2020/04/11,22:10,0.182,0.165,0.277,0.252,0.260,0.140,0.087,��쐼,4.7,��
2020/04/11,22:20,0.183,0.165,0.277,0.251,0.260,0.140,0.085,��쐼,5.4,��
2020/04/11,22:30,0.182,0.166,0.276,0.251,0.259,0.141,0.086,��쐼,5.7,��
2020/04/11,22:40,0.182,0.164,0.275,0.251,0.259,0.141,0.086,��쐼,6.2,��
2020/04/11,22:50,0.183,0.165,0.276,0.252,0.259,0.141,0.085,��쐼,6.4,��
2020/04/11,23:00,0.182,0.165,0.277,0.252,0.259,0.142,0.085,��쐼,6.1,��
2020/04/11,23:10,0.183,0.165,0.275,0.251,0.261,0.141,0.085,��쐼,5.9,��
2020/04/11,23:20,0.183,0.164,0.275,0.251,0.260,0.141,0.085,��쐼,5.2,��
2020/04/11,23:30,0.182,0.166,0.277,0.252,0.259,0.140,0.086,��쐼,5.7,��
2020/04/11,23:40,0.182,0.164,0.275,0.250,0.260,0.140,0.085,��쐼,5.6,��
2020/04/11,23:50,0.183,0.166,0.276,0.250,0.260,0.142,0.086,��쐼,6.4,��
